Miscellaneous Local Product
Issued by NWS North Platte, NE

Home | Current Version | Previous Version | Text Only | Print | Product List | Glossary On
Versions: 1 2 3 4 5 6 7 8 9 10 11 12 13 14 15 16 17 18 19 20 21 22 23 24 25 26 27 28 29 30 31 32 33 34 35 36 37 38 39 40 41 42 43 44 45 46 47 48 49 50
000
AXUS43 KLBF 131210
MISLBF


WESTERN AND NORTH CENTRAL NEBRASKA HOURLY WEATHER ROUNDUP
NATIONAL WEATHER SERVICE NORTH PLATTE NE
700 AM CDT SUN JUL 13 2014

***STATIONS NOT REPORTING VARIABLES SUCH AS SKY/WEATHER OR
PRESSURE ARE PROVIDED BY THE NEBRASKA DEPARTMENT OF
ROADS...RAWS...AND APRS NETWORKS...AND ARE NOT UNDER
NATIONAL WEATHER SERVICE QUALITY CONTROL***

...OBSERVATIONS IN AND NEAR THE EASTERN PANHANDLE OF NEBRASKA...

CITY           SKY/WX    TMP DP  RH WIND       PRES   REMARKS
PINE RIDGE     CLEAR     53  53 100 CALM      30.21R
CHADRON        CLEAR     55  54  96 W7        30.21S
ALLIANCE       CLEAR     55  54  96 CALM      30.25R
SIDNEY         CLEAR     58  55  90 CALM      30.28S
WHITECLAY        N/A     54  52  95 SE3         N/A
RUSHVILLE        N/A     57  55  94 SW12        N/A
GORDON           N/A     63  63  99 W7          N/A
CRESCENT LAKE    N/A     61  60  96 N3          N/A
LISCO            N/A     65  62  89 CALM        N/A
BIG SPRINGS      N/A     61  60  95 CALM        N/A
$$

...OBSERVATIONS IN NORTH CENTRAL NEBRASKA...

CITY           SKY/WX    TMP DP  RH WIND       PRES   REMARKS
VALENTINE      PTCLDY    63  62  97 W6        30.16R
THEDFORD       CLEAR     61  60  97 CALM      30.20R
AINSWORTH      CLEAR     63  62  97 W6        30.15S
O`NEILL        CLEAR     64  60  88 NW5       30.13R
ORD            CLEAR     62  60  93 NW3       30.13R
BROKEN BOW     CLEAR     61  60  97 SW3       30.17R FOG
BROWNLEE         N/A     64  63  94 W5          N/A
SPRINGVIEW       N/A     61  60  95 CALM        N/A
ROSE             N/A     65  64  99 CALM        N/A
NEWPORT          N/A     66  65  97 W5          N/A
SARGENT          N/A     62  61  98 CALM        N/A
COMSTOCK         N/A     69  68  97 W7          N/A
CHAMBERS         N/A     63  62  97 CALM        N/A
$$

...OBSERVATIONS IN SOUTHWEST NEBRASKA AND FAR NORTHEAST COLORADO...

CITY           SKY/WX    TMP DP  RH WIND       PRES   REMARKS
WRAY           FAIR     N/A N/A N/A CALM      30.24S
HOLYOKE        FAIR      61  59  94 CALM      30.25S
IMPERIAL       CLOUDY    63  60  90 N5        30.23R
OGALLALA       MOCLDY    59  58  97 CALM      30.23S FOG
NORTH PLATTE   MOCLDY    62  60  93 CALM      30.21R FOG
MCCOOK         MOCLDY    65  63  93 NW6       30.19F
LEXINGTON      CLEAR     64  63  97 NW5       30.18S FOG
PAXTON           N/A     63  62  96 CALM        N/A
SUTHERLAND       N/A     62  59  91 W5          N/A
BRADY            N/A     60  58  93 CALM        N/A
GOTHENBURG       N/A     64  60  86 CALM        N/A
CALLAWAY         N/A     59  58  97 CALM        N/A
$$

...NORTH PLATTE AREA...

CITY           SKY/WX    TMP DP  RH WIND       PRES   REMARKS
AIRPORT        MOCLDY    62  60  93 CALM      30.21R FOG
INDIAN HILLS     N/A     62  61  98 CALM        N/A
$$

...SOME WEATHER OBSERVATIONS FROM AROUND THE REGION...

CITY           SKY/WX    TMP DP  RH WIND       PRES   REMARKS
DENVER         MOCLDY    61  57  87 SW8       30.34R
LARAMIE        CLEAR     51  50  96 S5        30.43R FOG
CHEYENNE       CLEAR     57  54  89 NW3       30.36S
SCOTTSBLUFF    MOCLDY    63  62  97 SW3       30.26R
RAPID CITY     PTCLDY    60  52  74 W7        30.20R
PIERRE         CLEAR     63  63 100 W3        30.08R
WINNER         FAIR      63  60  90 W6        30.11R
SIOUX FALLS    PTCLDY    66  62  87 CALM      30.05R
OMAHA          PTCLDY    69  65  86 CALM      30.06R
GRAND ISLAND   CLEAR     67  64  90 W5        30.13R
KANSAS CITY    TSTM      70  69  97 S7        30.03F
WICHITA        MOCLDY    70  60  70 SW9       30.00S
HAYS           MOCLDY    70  63  78 N13       30.13R
LIBERAL        MOCLDY    68  61  77 N7        30.19F
GOODLAND       CLOUDY    63  61  93 N5        30.22F
$$



USA.gov is the U.S. government's official web portal to all federal, state and local government web resources and services.